Terug naar catalogus

PSLV R/B

ActiefHEO
NORAD 40270·ROCKET BODY·🇮🇳 India

Gelanceerd Oct 15, 2014 vanaf Satish Dhawan Space Centre

Loading…

Volgende Passages (komende 24 uur)

TLE

VersSource: Space-Track

Epoch: Sep 14, 2026, 09:06 UTC

1 40270U 14061B   26257.37975307  .00009960  00000-0  93818-3 0  9994
2 40270  17.7107 207.3190 5733904 137.8231 284.4934  4.48260101180971

Volg PSLV R/B in realtime met AllMySat

Download on the App Store